Flag for U.S.A. Weather past 2 weeks in Fort Collins, Colorado, U.S.A.

Now
39 °F

Passing clouds.


Feels Like: 33 °F
Forecast: 41 / 53 °F
Wind: 9 mph from East

Location: Fort Collins-Loveland Municipal Airport

Current Time: Apr 27, 2015 at 12:41:44 AM

Latest Report: Apr 27, 2015 at 12:15 AM


Visibility: 10 mi

Pressure: 30.15 "Hg

Humidity: 93%

Dew point: 37 °F

Location of Fort CollinsLocation

Historic Weather in Fort Collins — Graph

°F

Fort Collins temperature yesterday

Maximum temperature yesterday: 48 °F (at 12:15 AM)
Minimum temperature yesterday: 41 °F (at 10:15 PM)
Average temperature yesterday: 44 °F

Past Weeks' High & Low Weather Summary

 TemperatureHumidityPressure
High77 °F (Apr 14, 3:35 PM)100% (Apr 17, 7:55 AM)30.25 "Hg (Apr 17, 7:55 AM)
Low32 °F (Apr 20, 5:35 AM)11% (Apr 12, 4:55 PM)29.65 "Hg (Apr 24, 2:35 PM)
Average48 °F58%29.94 "Hg
* Reported Apr 11 11:15 PM — Apr 26 11:15 PM, Fort Collins, Weather by CustomWeather, © 2015

Note: Actual official high and low records may vary slightly from our data, if they occured in-between our weather recording intervals... More about our weather records

Advertising

Fort Collins weather history for previous 24 hours

 ConditionsComfort  
Time TempWeatherWind HumidityBarometerVisibility
11:15 PM
Sun, Apr 26
41 °FMostly cloudy.12 mph93%30.13 "Hg9 mi
10:55 PM41 °FMostly cloudy.13 mph93%30.12 "Hg4 mi
10:35 PM41 °FMostly cloudy.10 mph93%30.11 "Hg5 mi
10:15 PM41 °FLow clouds.9 mph93%30.10 "Hg7 mi
9:35 PM43 °FMostly cloudy.7 mph87%30.09 "Hg10 mi
9:15 PM43 °FPassing clouds.5 mph87%30.08 "Hg10 mi
8:55 PM43 °FPassing clouds.5 mph87%30.07 "Hg10 mi
8:35 PM43 °FBroken clouds.7 mph87%30.06 "Hg10 mi
8:15 PM43 °FBroken clouds.7 mph87%30.05 "Hg6 mi
7:55 PM43 °FCloudy.8 mph87%30.04 "Hg6 mi
7:35 PM43 °FMore clouds than sun.10 mph87%30.03 "Hg9 mi
7:15 PM43 °FMostly cloudy.10 mph87%30.02 "Hg10 mi
6:55 PM43 °FMostly cloudy.10 mph87%30.01 "Hg10 mi
6:35 PM43 °FPartly sunny.10 mph87%30.00 "Hg8 mi
6:15 PM43 °FPartly sunny.10 mph87%29.98 "Hg10 mi
5:55 PM45 °FMostly cloudy.12 mph87%29.98 "Hg10 mi
5:35 PM45 °FMostly cloudy.9 mph93%29.97 "Hg10 mi
5:15 PM45 °FMore clouds than sun.10 mph87%29.97 "Hg10 mi
4:55 PM43 °FCloudy.12 mph93%29.96 "Hg4 mi
4:35 PM45 °FMore clouds than sun.13 mph87%29.96 "Hg2 mi
3:55 PM45 °FMostly cloudy.10 mph87%29.95 "Hg2 mi
3:35 PM45 °FCloudy.10 mph93%29.94 "Hg10 mi
3:15 PM45 °FMore clouds than sun.10 mph87%29.94 "Hg10 mi
2:55 PM45 °FMore clouds than sun.10 mph87%29.94 "Hg3 mi
2:35 PM45 °FMostly cloudy.9 mph87%29.93 "Hg4 mi
2:15 PM45 °FMostly cloudy.9 mph87%29.93 "Hg5 mi
1:55 PM45 °FOvercast.10 mph87%29.93 "Hg10 mi
1:35 PM45 °FLow clouds.9 mph87%29.92 "Hg3 mi
1:15 PM45 °FBroken clouds.13 mph93%29.92 "Hg5 mi
12:55 PM45 °FMostly cloudy.7 mph93%29.92 "Hg2 mi
12:35 PM45 °FMostly cloudy.8 mph93%29.92 "Hg10 mi
12:15 PM45 °FMostly cloudy.8 mph93%29.92 "Hg7 mi
11:55 AM45 °FOvercast.7 mph87%29.92 "Hg4 mi
11:35 AM45 °FMostly cloudy.8 mph87%29.92 "Hg10 mi
11:15 AM45 °FLow clouds.9 mph87%29.92 "Hg8 mi
10:55 AM45 °FMostly cloudy.6 mph87%29.92 "Hg10 mi
10:35 AM45 °FLow clouds.7 mph87%29.91 "Hg10 mi
10:15 AM45 °FMostly cloudy.12 mph87%29.91 "Hg10 mi
9:55 AM45 °FOvercast.8 mph87%29.90 "Hg7 mi
9:35 AM45 °FOvercast.12 mph87%29.89 "Hg10 mi
9:15 AM45 °FOvercast.5 mph87%29.89 "Hg10 mi
8:55 AM43 °FMostly cloudy.5 mph93%29.89 "Hg10 mi
8:35 AM43 °FMostly cloudy.7 mph93%29.88 "Hg10 mi
8:15 AM43 °FMostly cloudy.8 mph93%29.87 "Hg10 mi
7:55 AM45 °FLow clouds.9 mph87%29.87 "Hg10 mi
7:35 AM45 °FLow clouds.7 mph87%29.86 "Hg4 mi
7:15 AM45 °FLow clouds.6 mph87%29.86 "Hg10 mi
6:55 AM45 °FLow clouds.9 mph87%29.85 "Hg10 mi
6:35 AM45 °FLow clouds.6 mph93%29.85 "Hg6 mi
6:15 AM45 °FLow clouds.3 mph87%29.84 "Hg10 mi
5:55 AM45 °FLow clouds.6 mph87%29.83 "Hg10 mi
5:35 AM45 °FMostly cloudy.8 mph87%29.82 "Hg10 mi
5:15 AM45 °FMostly cloudy.15 mph87%29.82 "Hg10 mi
4:55 AM45 °FLow clouds.17 mph87%29.81 "Hg10 mi
4:35 AM45 °FMostly cloudy.16 mph93%29.81 "Hg5 mi
4:15 AM46 °FMostly cloudy.14 mph87%29.81 "Hg7 mi
3:55 AM46 °FOvercast.12 mph87%29.81 "Hg10 mi
3:35 AM46 °FOvercast.9 mph87%29.81 "Hg10 mi
3:15 AM46 °FMostly cloudy.7 mph87%29.80 "Hg10 mi
2:55 AM46 °FOvercast.5 mph87%29.80 "Hg10 mi
2:35 AM46 °FOvercast.7 mph82%29.80 "Hg10 mi
2:15 AM46 °FMostly cloudy.8 mph87%29.81 "Hg10 mi
1:55 AM48 °FMostly cloudy.8 mph82%29.81 "Hg10 mi
1:35 AM48 °FOvercast.6 mph82%29.82 "Hg10 mi
1:15 AM48 °FPassing clouds.5 mph82%29.81 "Hg10 mi
12:55 AM48 °FPassing clouds.6 mph76%29.81 "Hg10 mi
12:35 AM48 °FPassing clouds.8 mph82%29.81 "Hg10 mi
12:15 AM48 °FClear.7 mph82%29.82 "Hg10 mi
Weather by CustomWeather, © 2015

See weather overviewHow to use our weather pages